TimeEDT,TemperatureF,Dew PointF,Humidity,Sea Level PressureIn,VisibilityMPH,Wind Direction,Wind SpeedMPH,Gust SpeedMPH,PrecipitationIn,Events,Conditions,WindDirDegrees,DateUTC
12:58 AM,78.6,73.0,83,29.85,10.0,SW,15.0,-,N/A,,Clear,220,2013-07-20 04:58:00
1:58 AM,78.3,72.5,82,29.84,10.0,SW,15.0,-,N/A,,Clear,230,2013-07-20 05:58:00
2:58 AM,78.3,72.1,81,29.83,10.0,SW,16.1,-,N/A,,Clear,230,2013-07-20 06:58:00
3:58 AM,77.9,72.1,82,29.81,10.0,SW,15.0,-,N/A,,Partly Cloudy,230,2013-07-20 07:58:00
4:36 AM,77.0,71.6,83,29.83,10.0,West,13.8,-,N/A,,Clear,280,2013-07-20 08:36:00
4:58 AM,77.0,72.1,85,29.82,10.0,West,10.4,-,N/A,,Partly Cloudy,270,2013-07-20 08:58:00
5:58 AM,76.1,71.8,86,29.82,10.0,WSW,10.4,-,N/A,,Clear,240,2013-07-20 09:58:00
6:58 AM,75.4,72.0,89,29.83,10.0,WSW,10.4,-,N/A,,Partly Cloudy,250,2013-07-20 10:58:00
7:58 AM,75.9,72.3,89,29.84,10.0,WSW,9.2,-,N/A,,Partly Cloudy,240,2013-07-20 11:58:00
7:59 AM,75.2,71.6,89,29.85,9.0,WSW,10.4,-,N/A,Rain,Light Rain,250,2013-07-20 11:59:00
8:03 AM,75.2,73.4,94,29.86,1.5,West,9.2,-,N/A,Rain-Thunderstorm,Rain,260,2013-07-20 12:03:00
8:04 AM,75.2,73.4,94,29.86,1.8,West,9.2,-,N/A,Rain,Rain,270,2013-07-20 12:04:00
8:09 AM,75.2,73.4,94,29.86,1.0,WSW,8.1,-,N/A,Rain,Light Rain,240,2013-07-20 12:09:00
8:14 AM,75.2,73.4,94,29.86,1.8,West,5.8,-,N/A,Rain,Light Rain,260,2013-07-20 12:14:00
8:19 AM,75.2,73.4,94,29.86,9.0,WSW,8.1,-,N/A,Rain-Thunderstorm,Light Rain,250,2013-07-20 12:19:00
8:39 AM,75.2,73.4,94,29.86,7.0,WSW,5.8,-,N/A,Rain,Light Rain,250,2013-07-20 12:39:00
8:56 AM,75.2,73.4,94,29.87,7.0,West,9.2,-,N/A,Rain-Thunderstorm,Light Thunderstorms and Rain,260,2013-07-20 12:56:00
8:58 AM,75.2,73.4,94,29.87,10.0,West,9.2,-,N/A,Rain-Thunderstorm,Light Thunderstorms and Rain,260,2013-07-20 12:58:00
9:16 AM,75.2,73.4,94,29.88,10.0,West,12.7,-,N/A,,Partly Cloudy,260,2013-07-20 13:16:00
9:39 AM,73.4,73.4,100,29.88,10.0,WSW,8.1,-,N/A,Thunderstorm,Mostly Cloudy,250,2013-07-20 13:39:00
9:58 AM,73.8,73.0,98,29.88,10.0,WSW,9.2,-,0.00,Thunderstorm,Scattered Clouds,240,2013-07-20 13:58:00
10:40 AM,73.4,73.4,100,29.90,10.0,WSW,8.1,-,N/A,,Scattered Clouds,250,2013-07-20 14:40:00
10:58 AM,74.1,73.0,96,29.89,10.0,WSW,8.1,-,N/A,,Clear,250,2013-07-20 14:58:00
11:58 AM,77.0,73.2,88,29.89,10.0,West,9.2,-,N/A,,Partly Cloudy,260,2013-07-20 15:58:00
12:58 PM,79.7,73.4,81,29.89,10.0,West,8.1,-,N/A,,Partly Cloudy,260,2013-07-20 16:58:00
1:58 PM,79.3,74.1,84,29.89,10.0,SSW,11.5,-,N/A,,Scattered Clouds,210,2013-07-20 17:58:00
2:58 PM,82.8,74.1,75,29.87,10.0,SW,5.8,-,N/A,,Partly Cloudy,220,2013-07-20 18:58:00
3:58 PM,85.1,73.9,69,29.86,10.0,SW,5.8,-,N/A,,Partly Cloudy,230,2013-07-20 19:58:00
4:58 PM,83.5,73.0,71,29.85,10.0,West,5.8,-,N/A,,Partly Cloudy,270,2013-07-20 20:58:00
5:58 PM,82.6,74.5,76,29.86,10.0,SSW,12.7,-,N/A,,Partly Cloudy,210,2013-07-20 21:58:00
6:13 PM,80.6,73.4,79,29.87,10.0,SW,11.5,-,N/A,,Mostly Cloudy,220,2013-07-20 22:13:00
6:23 PM,80.6,75.2,84,29.87,10.0,SW,13.8,-,N/A,,Scattered Clouds,230,2013-07-20 22:23:00
6:58 PM,80.4,74.7,83,29.85,10.0,SW,8.1,-,N/A,,Clear,230,2013-07-20 22:58:00
7:58 PM,77.9,74.1,88,29.87,10.0,SW,5.8,-,N/A,,Clear,230,2013-07-20 23:58:00
8:58 PM,76.1,74.1,94,29.91,10.0,SW,5.8,-,N/A,,Clear,230,2013-07-21 00:58:00
9:58 PM,73.4,72.9,98,29.93,10.0,WSW,6.9,-,N/A,,Scattered Clouds,250,2013-07-21 01:58:00
10:47 PM,71.6,71.6,100,29.93,10.0,SSW,2.3,-,N/A,,Partly Cloudy,210,2013-07-21 02:47:00
10:58 PM,71.8,71.8,100,29.93,10.0,SW,3.5,-,N/A,,Partly Cloudy,220,2013-07-21 02:58:00
11:58 PM,71.2,71.2,100,29.93,10.0,West,4.6,-,N/A,,Clear,270,2013-07-21 03:58:00